Flag for Romania Weather past 2 weeks in Iasi, Romania

Now
37 °F

Partly sunny.


Feels Like: 37 °F
Forecast: 29 / 41 °F
Wind: No wind

Location: Iasi Airport

Current Time: Feb 1, 2015 at 12:45:46 PM

Latest Report: Feb 1, 2015 at 12:00 PM


Visibility: N/A

Pressure: 29.30 "Hg

Humidity: 75%

Dew point: 30 °F

Location of IasiLocation

Historic Weather in Iasi — Graph

°F

Iasi temperature yesterday

Maximum temperature yesterday: 52 °F (at 1:00 PM)
Minimum temperature yesterday: 36 °F (at 11:00 PM)
Average temperature yesterday: 46 °F

Past Weeks' High & Low Weather Summary

 TemperatureHumidityPressure
High52 °F (Jan 31, 1:00 PM)100% (Jan 17, 5:00 PM)30.21 "Hg (Jan 17, 5:00 PM)
Low28 °F (Jan 19, 12:00 AM)2% (Jan 20, 4:30 PM)28.97 "Hg (Jan 31, 6:00 AM)
Average35 °F93%29.90 "Hg
* Reported Jan 17 12:00 Noon — Feb 1 12:00 Noon, Iasi, Weather by CustomWeather, © 2014

Note: Actual official high and low records may vary slightly from our data, if they occured in-between our weather recording intervals... More about our weather records

Advertising

Iasi weather history for previous 24 hours

 ConditionsComfort  
Time TempWeatherWind HumidityBarometerVisibility
12:00 PM
Feb 1
37 °FPartly sunny.No wind75%29.30 "HgN/A
11:30 AM36 °FSunny.No wind81%29.30 "Hg10 mi
11:00 AM34 °FSunny.No wind81%29.33 "Hg10 mi
10:30 AM32 °FSunny.No wind87%29.33 "Hg10 mi
10:00 AM32 °FSunny.No wind80%29.36 "Hg10 mi
9:30 AM32 °FSunny.No wind87%29.36 "Hg10 mi
9:00 AM32 °FSunny.No wind87%29.36 "Hg10 mi
8:30 AM32 °FSunny.No wind80%29.36 "Hg10 mi
8:00 AM30 °FSunny.No wind86%29.36 "Hg10 mi
7:30 AM34 °FClear.No wind75%29.36 "Hg10 mi
7:00 AM34 °FClear.No wind75%29.36 "Hg10 mi
6:30 AM34 °FClear.No wind75%29.39 "Hg10 mi
6:00 AM36 °FClear.6 mph70%29.39 "Hg10 mi
5:30 AM36 °FClear.7 mph70%29.39 "Hg10 mi
5:00 AM36 °FClear.5 mph70%29.39 "Hg10 mi
4:00 AM34 °FPassing clouds.2 mph81%29.42 "HgN/A
3:00 AM34 °FClear.7 mph75%29.42 "Hg10 mi
2:00 AM36 °FClear.6 mph70%29.42 "Hg10 mi
1:00 AM34 °FClear.8 mph75%29.42 "Hg10 mi
12:00 AM36 °FClear.3 mph65%29.39 "Hg10 mi
11:00 PM
Jan 31
36 °FClear.5 mph60%29.39 "Hg10 mi
10:00 PM37 °FClear.5 mph56%29.36 "Hg10 mi
9:00 PM39 °FPassing clouds.2 mph48%29.36 "HgN/A
8:30 PM39 °FClear.6 mph48%29.33 "Hg10 mi
8:00 PM39 °FPassing clouds.5 mph48%29.33 "HgN/A
7:30 PM41 °FClear.9 mph45%29.30 "Hg10 mi
7:00 PM41 °FPassing clouds.6 mph45%29.30 "HgN/A
6:30 PM43 °FPassing clouds.6 mph42%29.27 "HgN/A
6:00 PM43 °FClear.14 mph49%29.24 "Hg10 mi
5:30 PM45 °FPassing clouds.12 mph49%29.21 "HgN/A
5:00 PM46 °FPassing clouds.10 mph40%29.18 "HgN/A
4:30 PM48 °FPassing clouds.16 mph37%29.15 "HgN/A
4:00 PM50 °FPassing clouds.16 mph32%29.12 "HgN/A
3:30 PM50 °FSunny.15 mph37%29.12 "Hg10 mi
3:00 PM50 °FPassing clouds.17 mph43%29.09 "HgN/A
2:30 PM52 °FPassing clouds.16 mph38%29.09 "HgN/A
2:00 PM52 °FPassing clouds.9 mph50%29.06 "HgN/A
1:30 PM52 °FPassing clouds.13 mph47%29.06 "HgN/A
1:00 PM52 °FPassing clouds.13 mph54%29.03 "HgN/A
12:30 PM50 °FPassing clouds.3 mph71%29.03 "HgN/A
12:00 PM50 °FPassing clouds.7 mph71%29.00 "HgN/A
Weather by CustomWeather, © 2014

See weather overviewHow to use our weather pages